Résultats de la compétition "1/2 Finale zone S-E championnat de France" du 17-06-2007 organisée par le club 0406
     
  Télécharger le fichier CSV.  
     
     

 Circuit "A"

Licence Nom Prénom Temps CN
précédent
Score sur
la course
Différence
166GUEORGIOURemi1:36:17N/A6509N/A
1284PEYVELBenoit1:36:32N/A6493N/A
160GOUYRudy1:38:40N/A6352N/A
1176PUECHMatthieu1:44:37N/A5991N/A
817GARDEYoann1:44:56N/A5973N/A
3463DECHAVANNEFranck1:45:27N/A5944N/A
14328MONIERBenjamin1:48:30N/A5777N/A
1175PUECHJ-Baptiste1:48:38N/A5769N/A
6265BRUNERIERomain1:50:18N/A5682N/A
7049LEROYSimon1:54:14N/A5487N/A
16993CAMALETDaniel1:56:33N/A5378N/A
2924CALANDOTFrancois1:59:21N/A5251N/A
11390CLEMENT-AGONIStéphane2:05:38N/A4989N/A
4013CHANDEZONJ-Luc2:08:49N/A4865N/A
10984RIZZOTTOJulien2:10:25N/A4806N/A
3141MOREYEtienne2:13:09N/A4707N/A
3563DUSIGNEPatrick2:13:09N/A4707N/A
14758BARITAUXJ-Charles2:13:37N/A4691N/A
15691DABINStephane3:01:12N/A3459N/A

  Indice de confiance du circuit (moyenne des différences entre CN et score sur la course des 3 à 10 premiers) : 301




 Circuit "A Bis"

Licence Nom Prénom Temps CN
précédent
Score sur
la course
Différence
12058POUPARDThibaut1:29:39N/A6703N/A
7397TRANCHANDFrederic1:41:40N/A5911N/A
9354LOCATELLIYann1:48:37N/A5533N/A
13090GAUDUINMaxime1:53:27N/A5297N/A
14009FATOUXRemy1:54:03N/A5269N/A
12401KERN-GILLARDMathieu1:57:43N/A5105N/A
843ROUILLERThomas1:58:13N/A5083N/A
9521JANIAKMaxime1:58:25N/A5075N/A
16069DEVATHAIREGonzague1:58:34N/A5068N/A
3778RUIZLudovic1:58:47N/A5059N/A
2740VENONLoïc1:59:22N/A5034N/A
17673MASSOTBertrand2:01:58N/A4927N/A
15925MERLEJulien2:03:29N/A4867N/A
3581GAIREGuillaume2:07:53N/A4699N/A
12295ROCHENicolas2:10:20N/A4611N/A
3161CATALONStephane2:11:16N/A4578N/A
3580DODINChristophe2:13:51N/A4490N/A
4848CHASTELVincent2:15:44N/A4427N/A
16940CHATELAINNicolas2:18:44N/A4332N/A
15855MUSCARNERALaurent2:21:16N/A4254N/A
17672JEANNIOTThomas2:24:11N/A4168N/A
3675CHALOPINMathieu2:30:36N/A3990N/A
4159RICHAUDAdrien2:39:23N/A3770N/A
6566GIBIATXavier2:40:41N/A3740N/A
1265COLLETERThomas2:44:24N/A3655N/A
8972LEPLATEmmanuel2:45:19N/A3635N/A
6031TRAVERSADidier2:55:29N/A3424N/A
11574NOYERAnthony3:00:58N/A3321N/A
13021BOURNEYvan3:46:17N/A2656N/A
18812SCHAEFFEROlivierN/AN/A0N/A
18858REYOlivierN/AN/A0N/A
1273ANTOINEThomasN/AN/A0N/A
13228BENOITPatriceN/AN/A0N/A
8925VILETTELaurentN/AN/A0N/A

  Indice de confiance du circuit (moyenne des différences entre CN et score sur la course des 3 à 10 premiers) : 192




 Circuit "B"

Licence Nom Prénom Temps CN
précédent
Score sur
la course
Différence
206PERRINGilles1:10:45N/A6288N/A
205PERRINEric1:11:29N/A6223N/A
2715HABERKORNBruno1:19:19N/A5609N/A
3811GRANGEREmmanuel1:25:31N/A5202N/A
17287HENAFFVincent1:26:55N/A5118N/A
10662DRAGANOVDragomir1:27:32N/A5082N/A
13447FLIPODidier1:28:04N/A5051N/A
183LINOSSIERPierre1:28:09N/A5047N/A
2150GILLARDSylvain1:28:53N/A5005N/A
3961BOUCHETCharlotte1:30:53N/A4895N/A
18477LAFARGEAlexandre1:31:54N/A4841N/A
5139BECUCindy1:32:40N/A4801N/A
8203ASTRADELaurent1:38:03N/A4537N/A
12070VALOISLaurent1:40:03N/A4446N/A
14766STUCKELBERGERNicola1:40:55N/A4408N/A
11700JANODFrancois1:43:35N/A4295N/A
8388LHOMBARTElsa1:46:16N/A4186N/A
12652VIALARDJerome1:46:47N/A4166N/A
14777CHEVREUXEmmanuel1:47:11N/A4150N/A
189MANISSOLLEChloe1:50:32N/A4025N/A
637GAZAVEChristelle1:56:35N/A3816N/A
11391CLEMENT-AGONIBenjamin1:58:06N/A3767N/A
6599VERDENALBenoit2:00:45N/A3684N/A
5691RODRIGUEZStephane2:04:36N/A3570N/A
16221CARPENTIERJ-Baptist2:05:07N/A3556N/A
16056MARIOlivier2:10:01N/A3422N/A
7876JUILLANNicolas2:10:14N/A3416N/A
11903PALAZZINIAngelo4:20:07N/A1710N/A
4080BONODEAUGuillaumeN/AN/A0N/A

  Indice de confiance du circuit (moyenne des différences entre CN et score sur la course des 3 à 10 premiers) : 296




 Circuit "B Bis"

Licence Nom Prénom Temps CN
précédent
Score sur
la course
Différence
1593DELENNEPierre1:07:21N/A6066N/A
787MASONIBruno1:14:29N/A5485N/A
2427CABIANCAJ-Pierre1:14:54N/A5455N/A
3101LONGAAlain1:26:38N/A4716N/A
7877VANDEWEEGHEVincent1:30:13N/A4529N/A
3546GIBIATFrederic1:30:40N/A4506N/A
484MERMINEric1:32:27N/A4419N/A
761POMETEric1:33:49N/A4355N/A
9179ALESSANDRIPierre1:33:58N/A4348N/A
8104ABELCelie-Anne1:36:13N/A4246N/A
1658SPANIERLuc1:37:20N/A4197N/A
2683MOUILLONLaurent1:39:09N/A4121N/A
11717MANCISPhilippe1:39:20N/A4113N/A
2443PEANBruno1:40:03N/A4084N/A
16492CARRIEREOlivier1:40:31N/A4065N/A
10517ROGERJ-Pierre1:40:38N/A4060N/A
3203DESBRESTPatrick1:40:56N/A4048N/A
12503PETETINJ-Louis1:41:43N/A4017N/A
9460MONTEMONTPatrice1:42:10N/A3999N/A
8773GRATIENJacques1:43:44N/A3939N/A
465LOPEZAlain1:44:09N/A3923N/A
17711MOTHEPierre1:44:14N/A3920N/A
9462BOUCHETJ-Michel1:49:43N/A3724N/A
1100SCHIAVOGilles1:50:56N/A3683N/A
12055POUPARDAlain1:53:27N/A3601N/A
13245POYARDJ-Claude1:53:40N/A3594N/A
10374LONGAPatrice1:54:01N/A3583N/A
9767MATASSONIGeorges1:54:24N/A3571N/A
10499LENNHOLMMorten1:55:07N/A3549N/A
6256FABREGATPascal1:55:57N/A3524N/A
16931BOYERPatrick1:58:26N/A3450N/A
851VALLATGerard2:11:53N/A3098N/A
7258PELLOUXGerard2:17:39N/A2968N/A
17860GUSTAFSSONTommi2:18:41N/A2946N/A
16174BREDOUXBruno2:19:02N/A2939N/A
10798SIONNEAUMarc2:33:32N/A2661N/A
8733COULIERFrancois2:41:28N/A2530N/A
17032DURBESSONPhilippe2:42:06N/A2520N/A
16448VARELAPatrick3:08:48N/A2164N/A
17897TROISOEUFSPhilippe3:37:28N/A1879N/A
17790PICAZOJ-Jacques3:48:01N/A1792N/A
4837D'HARREVILLEKarineN/AN/A0N/A

  Indice de confiance du circuit (moyenne des différences entre CN et score sur la course des 3 à 10 premiers) : 149




 Circuit "C"

Licence Nom Prénom Temps CN
précédent
Score sur
la course
Différence
8695BASSETLucas1:07:01N/A7039N/A
6523WYMEREddie1:07:19N/A7008N/A
4220FLEURENTTheo1:08:44N/A6863N/A
11420RINGOTMathieu1:11:07N/A6633N/A
736POURREAlain1:28:16N/A5344N/A
136BORNARDPatrice1:30:49N/A5194N/A
3818BASSETOlivier1:32:46N/A5085N/A
12868FUMEYClément1:33:15N/A5059N/A
13020REVEILLONAnthony1:33:47N/A5030N/A
9664RICHARDMael1:34:02N/A5017N/A
3677GIROUXJ-Daniel1:34:09N/A5010N/A
12231ELIASPierre1:35:18N/A4950N/A
10089ROCHERobert1:35:51N/A4922N/A
6108DODIERRodolphe1:35:55N/A4918N/A
3558LONGALaurent1:36:02N/A4912N/A
814DEVRIEUXRobin1:36:08N/A4907N/A
11919REMOUETMichel1:36:22N/A4895N/A
9401LE DREAUCorentin1:38:03N/A4811N/A
14861PORTOLEAUFrederic1:39:06N/A4760N/A
1348SINIBALDIMichel1:40:25N/A4698N/A
3136LALEVEEJ-David1:41:29N/A4648N/A
12057POUPARDStephane1:42:09N/A4618N/A
12006JOUNEAUPierre-Henri1:42:50N/A4587N/A
5676BALLIOTYvan1:44:43N/A4505N/A
6567GIBIATAurelien1:44:47N/A4502N/A
11829DANIELEric1:45:09N/A4486N/A
11833WATHELETEric1:54:47N/A4110N/A
11643COURSONHubert1:56:46N/A4040N/A
4731SCIUTTIDidier2:04:18N/A3795N/A
16714MONCLARDJerome2:04:40N/A3784N/A
15058GRANGIERPhilippe2:09:27N/A3644N/A
2585LANGEARDVincent2:11:43N/A3581N/A
11419RINGOTFrederic2:14:20N/A3512N/A
1592DELENNEMatthieu2:16:55N/A3445N/A
10785GROSSELaurent2:20:09N/A3366N/A
10059MARCELMichel2:21:38N/A3331N/A
11243PARPALEric2:27:37N/A3196N/A
18078RADISSONBruno2:27:58N/A3188N/A
12230FERRATOEric2:31:26N/A3115N/A
11949DESBRESTPierre2:43:17N/A2889N/A
13294TOULIERFrancois2:44:57N/A2860N/A
12252ROLLANDEmmanuel2:46:24N/A2835N/A
17757HILTGUNJ-Michel3:17:42N/A2386N/A
17752COURTESFrederic4:17:44N/A1830N/A
11964DOUCETNicolasN/AN/A0N/A
18410LAVILLEXavierN/AN/A0N/A
11332GUETINFrancoisN/AN/A0N/A

  Indice de confiance du circuit (moyenne des différences entre CN et score sur la course des 3 à 10 premiers) : 196




 Circuit "D"

Licence Nom Prénom Temps CN
précédent
Score sur
la course
Différence
702WYMERIsabelle1:18:29N/A4978N/A
12621GROSJEANChristine1:28:16N/A4427N/A
2731PERRINOdile1:28:53N/A4396N/A
7554TANNONathalie1:34:16N/A4145N/A
10215VERDIERChristine1:35:58N/A4071N/A
4158RICHAUDA-Sophie1:36:21N/A4055N/A
6064GREBELLaurence-Marie1:38:55N/A3950N/A
743RIZZOTTOHelene1:44:17N/A3747N/A
2717HABERKORNValérie1:44:40N/A3733N/A
1928CHAILLARDMarketa1:45:46N/A3694N/A
7979CHRISTSarah1:45:52N/A3691N/A
12835GIACCHIStephanie1:46:35N/A3666N/A
17933LEGENDREM-Noelle1:48:19N/A3607N/A
14391GUNDOLFKatherine1:49:32N/A3567N/A
14269SERRETDelphine1:49:44N/A3561N/A
14776LLUELLCeline1:52:29N/A3474N/A
4724DUFOURBarbara1:53:01N/A3457N/A
12651MIAILHEPascale1:54:35N/A3410N/A
14158CHEVRIERStephanie1:56:08N/A3364N/A
14582LAZARDTiphaine2:00:10N/A3252N/A
13850CAGNARDNathalie2:01:33N/A3215N/A
13833TRIMAILLEIsabelle2:03:50N/A3155N/A
18154SCHAEFFERIsabelle2:04:39N/A3135N/A
7002DELHOTALValerie2:07:24N/A3067N/A
9589CAZESCeline2:12:12N/A2956N/A
14439BARREDALaure2:16:35N/A2861N/A
18038GAZETNathalie2:17:18N/A2846N/A
7481BELLIOTFanny2:17:59N/A2832N/A
7614BRUNETIsabelle2:18:45N/A2816N/A
11495DELENNEA-Francoise2:21:45N/A2756N/A
9661GIGONJosephine2:25:57N/A2677N/A
10684ROCHESandrine2:27:03N/A2657N/A
15655PENNETCeline2:27:17N/A2653N/A
16146BITTERLINLaurence2:36:20N/A2499N/A
10786GROSSESandrine2:39:51N/A2444N/A
1547LIGNONViolaine2:42:55N/A2398N/A
15411ASTRADEBlandine2:58:57N/A2183N/A
12142JOURDINLaureN/AN/A0N/A
8608AURIENTISSandrineN/AN/A0N/A
227CHAMPTIAUXIsabelleN/AN/A0N/A
12842RODRIGUEZDelphineN/AN/A0N/A
14100GILLARD-BESSEFabienneN/AN/A0N/A
13799KROLHeleneN/AN/A0N/A
10284GRATIENAuroreN/AN/A0N/A
10846BARBIERArmelleN/AN/A0N/A

  Indice de confiance du circuit (moyenne des différences entre CN et score sur la course des 3 à 10 premiers) : 172




 Circuit "E"

Licence Nom Prénom Temps CN
précédent
Score sur
la course
Différence
13753PATISSIERQuentin0:39:06N/A7475N/A
193MANISSOLLEYves0:55:43N/A5245N/A
8514VASSYMargaux0:56:24N/A5182N/A
1848DERMINEJean0:59:47N/A4889N/A
2328MOISSETJacques1:00:13N/A4853N/A
2395SCHWARTZPierre1:00:26N/A4836N/A
4866BRUNERIEAlain1:00:26N/A4836N/A
5168JACQUESSONGilles1:00:31N/A4829N/A
12288FOULET-MOREAULauria1:02:51N/A4650N/A
7524MACHEREYGilles1:04:17N/A4546N/A
5803COULONThibaud1:06:32N/A4393N/A
8110GILLONNIERFabienne1:06:43N/A4381N/A
476MATHIEUMaurice1:09:00N/A4236N/A
1739CAMPOSJ-Pierre1:09:50N/A4185N/A
3461DECHAVANNEJ-Francoi1:09:55N/A4180N/A
233REYNAUDCedric1:10:43N/A4133N/A
9396LE DREAUJ-Claude1:10:58N/A4118N/A
8942ROUSSINClaude1:12:09N/A4051N/A
3254DARTHIAILJean-Paul1:12:29N/A4032N/A
1447ESCURETAndrea1:12:30N/A4031N/A
813COMBETAnnie1:12:53N/A4010N/A
4059FAIVREDaniel1:14:50N/A3905N/A
2782REMOUETM-Pierre1:14:57N/A3899N/A
11321GRAUERJ-Luc1:15:32N/A3869N/A
4272CLERCAnne1:15:57N/A3848N/A
460KELLERJacques1:16:01N/A3845N/A
132BODELETHerve1:16:32N/A3819N/A
543PORTESJean-Raymond1:16:37N/A3814N/A
740RUAUDAlain1:17:49N/A3756N/A
738POURREValerie1:18:34N/A3720N/A
3323SCHMITTDenys1:19:34N/A3673N/A
12074GUSTAFSSONJohanna1:20:38N/A3624N/A
7147RAGACHEJ-Claude1:20:53N/A3613N/A
8625FERRANDLuc1:21:00N/A3608N/A
5463DENAIXOriane1:21:02N/A3607N/A
1631ROUXMichel1:21:44N/A3576N/A
18655BERNARDLaura1:22:02N/A3563N/A
1591DELENNEBlandine1:22:49N/A3529N/A
4537SLIMANJacques1:23:17N/A3509N/A
1635MAGDINIERGilles1:24:12N/A3471N/A
724LAURENTPhilippe1:24:35N/A3455N/A
1124BENEVELLOOlivier1:24:38N/A3453N/A
11716SECKLERDaniel1:24:38N/A3453N/A
1819SANTAMARIAPatrick1:25:28N/A3420N/A
1847DERMINEIsabelle1:26:00N/A3398N/A
14741BRABANTGuy1:27:54N/A3325N/A
12069ANGLARETAnais1:30:22N/A3234N/A
9230THIEVENAZRoland1:31:09N/A3206N/A
13110MARGOTTEAUGhislaine1:34:37N/A3089N/A
8512MONTERRATMartine1:34:52N/A3081N/A
3874VISCAPaul1:35:06N/A3073N/A
8648VALCHERAClaire1:36:19N/A3034N/A
18654BERNARDVincent1:37:05N/A3010N/A
12060PITAVALSylvie1:37:23N/A3001N/A
6612ABELMartine1:37:28N/A2999N/A
3324MASONIBeatrice1:37:30N/A2997N/A
10283GRATIENNathalie1:37:36N/A2994N/A
288LEGALLRoger1:37:57N/A2984N/A
13150GUETAZLaure1:38:09N/A2978N/A
8894CRUBILELaurence1:41:24N/A2882N/A
15200MARGOTTEAUPhilippe1:43:16N/A2830N/A
2426CABIANCABeatrice1:44:33N/A2795N/A
11965DOUCETAurelie1:45:41N/A2765N/A
10979LEMAIRENathalie1:47:14N/A2725N/A
480RIDEAUPhilippe1:47:45N/A2712N/A
16352BAUDOINJ-Paul1:48:39N/A2690N/A
809BOURRINMichel1:50:49N/A2637N/A
18079WOEHRLE RADISSONAnne1:53:01N/A2586N/A
7376LAZOA-Marie1:54:29N/A2553N/A
6610CHANTELOUAnnie1:55:33N/A2529N/A
14786LOPEZSvetlana2:00:06N/A2433N/A
15962ALESSANDRIChristine2:02:52N/A2379N/A
7801MACHEREYLaurence2:04:35N/A2346N/A
17094JUSSIAN-SOGNOSylvie2:04:42N/A2344N/A
12356RINGOTVeronique2:05:12N/A2334N/A
13133RIBAUTJ-Paul2:06:26N/A2312N/A
11389CLEMENT-AGONIJ-Pierre2:09:43N/A2253N/A
10394INDEAUXCatherine2:10:05N/A2247N/A
10787KOBRYNMarc2:10:32N/A2239N/A
12026DEPHILIPPOJ-Luc2:11:24N/A2224N/A
12470MATASSONIM-Helene2:13:37N/A2187N/A
17789PICAZOSophie2:14:59N/A2165N/A
18478LAFARGEOdile2:18:47N/A2106N/A
16715MONCLARDValerie2:19:17N/A2098N/A
12460FARRUGIAJ-Marc2:21:18N/A2068N/A
12464FARRUGIAAmandine2:41:32N/A1809N/A
16975JOOSSophie3:08:27N/A1551N/A
10862HOULLIERIsabelleN/AN/A0N/A
16001ROUXAgnesN/AN/A0N/A
4217QUIGNONBernardN/AN/A0N/A
15390BARTHELEMYMarianneN/AN/A0N/A
12655PASTORINOPatrickN/AN/A0N/A

  Indice de confiance du circuit (moyenne des différences entre CN et score sur la course des 3 à 10 premiers) : 177




 Circuit "F"

Licence Nom Prénom Temps CN
précédent
Score sur
la course
Différence
1993PERICHONBernard0:50:47N/A5147N/A
7307MERMILLODM-Elisabet0:57:51N/A4518N/A
3163COLOMBETChristian1:00:24N/A4328N/A
7430BUHREAnders1:01:52N/A4225N/A
1093ARNAUDSerge1:04:07N/A4077N/A
751VOLAYAndre1:04:30N/A4053N/A
5938EGGLIRoland1:05:11N/A4010N/A
1152DELIFrancoise1:06:48N/A3913N/A
1643MARINSEKJosef1:07:16N/A3886N/A
1347SINIBALDIMarc1:09:55N/A3739N/A
13598BERJOANClaudie1:12:33N/A3603N/A
3515ILLESDominique1:13:44N/A3545N/A
4156RICHAUDAlain1:15:05N/A3481N/A
703ABISSEJacques1:15:12N/A3476N/A
841GATYDaniele1:15:54N/A3444N/A
2343DUFOURMarcel1:16:24N/A3421N/A
6442GEOFFROYGerard1:18:47N/A3318N/A
8626FERRANDM-Christine1:19:19N/A3296N/A
18594AUCANOTOlivier1:21:34N/A3205N/A
807BOURRINM-Francoise1:23:43N/A3122N/A
10073COULONAnnick1:24:17N/A3101N/A
455GUIGUETMichel1:25:29N/A3058N/A
95CABONHerve1:25:31N/A3057N/A
7042ANDREPatrick1:27:31N/A2987N/A
2354MANGUERODenise1:28:15N/A2962N/A
10518ROIGCarmen1:28:38N/A2949N/A
12354GROSJEANPierre1:28:39N/A2949N/A
13752VILLEDIEUMartine1:31:12N/A2866N/A
12056SCHMITT-POUPARDFlorence1:31:26N/A2859N/A
506MARASCOThomas1:33:55N/A2783N/A
8944BOUILLETGenevieve1:34:36N/A2763N/A
11322GRAUERIsabelle1:35:03N/A2750N/A
3665KPOKOUChristiane1:37:33N/A2680N/A
14584FERRATONGenevieve1:39:05N/A2638N/A
1599JOUVEColette1:39:10N/A2636N/A
2329MOISSETNicole1:39:25N/A2629N/A
655QUEYROIHenri1:39:50N/A2618N/A
454GUIGUETAntoinette1:41:25N/A2577N/A
14253PALUDJoel1:43:17N/A2531N/A
3662DOUSTE-BACQUEIsabel1:43:26N/A2527N/A
739RUAUDAgnes1:51:24N/A2346N/A
458KELLERCaty1:51:46N/A2339N/A
9397LE DREAULiliane1:54:58N/A2274N/A
2182PROSTGisele2:09:01N/A2026N/A
2181PROSTDaniel2:10:28N/A2003N/A
17525CARRIEREJosianne2:14:43N/A1940N/A
96CABONMonique2:16:30N/A1915N/A
10790KOBRYNAngelique2:20:32N/A1860N/A
16634BAUDOINAnnie2:22:18N/A1837N/A
10264LENFANTChantal2:42:49N/A1605N/A
1628ROUXAnnie2:56:02N/A1485N/A
10788KOBRYNM-Claire2:58:39N/A1463N/A
12461FARRUGIARegine3:00:56N/A1445N/A
14021QUEYROIYvetteN/AN/A0N/A
1756LORREAnnieN/AN/A0N/A
9784POURCELLucienneN/AN/A0N/A
3556SZNAIDERPatrickN/AN/A0N/A
12071VALOISSolangeN/AN/A0N/A
10254KPOKOULordN/AN/A0N/A
3547GIBIATDanielleN/AN/A0N/A
1174PUECHFrancoiseN/AN/A0N/A
18401ROCHEBernadetteN/AN/A0N/A

  Indice de confiance du circuit (moyenne des différences entre CN et score sur la course des 3 à 10 premiers) : 126




 Circuit "G"

Licence Nom Prénom Temps CN
précédent
Score sur
la course
Différence
1737BONRene0:58:22N/A4159N/A
14235ANFOSSIGiuseppe1:04:32N/A3761N/A
5167BORRELLIBernadette1:20:36N/A3012N/A
512BOCHETRoland1:34:35N/A2566N/A
701ABISSEGisele1:41:30N/A2391N/A
725LAURENTTherese1:47:01N/A2268N/A
1750GEHINMonique1:48:25N/A2239N/A
1416CHAVERNACBruno1:49:56N/A2208N/A
18688BUISSONGeneviève2:20:57N/A1722N/A
1417CHAVERNACChantalN/AN/A0N/A
12059GROSJEANA-MarieN/AN/A0N/A

  Indice de confiance du circuit (moyenne des différences entre CN et score sur la course des 3 à 10 premiers) : 364




 Circuit "H"

Licence Nom Prénom Temps CN
précédent
Score sur
la course
Différence
12469MATASSONIRobin1:10:43N/A3593N/A
13933BREDOUXGaspard1:12:54N/A3486N/A
14782CHARONSimon1:14:13N/A3424N/A
18050VEYRUNESJeremie1:17:43N/A3270N/A
11951DESBRESTPaul1:22:46N/A3070N/A
12041SEUXThomas1:26:16N/A2946N/A
14739HILTGUNLuca1:28:01N/A2887N/A
12040ALLIERCalixte1:28:35N/A2869N/A
10784COULIERAdrien3:03:57N/A1381N/A
14672BLANC-TRANCHANTOlivierN/AN/A0N/A
15063COUTYGuillaumeN/AN/A0N/A

  Indice de confiance du circuit (moyenne des différences entre CN et score sur la course des 3 à 10 premiers) : 616




 Circuit "I"

Licence Nom Prénom Temps CN
précédent
Score sur
la course
Différence
13554CHATAINGClement0:54:28N/A3701N/A
16826BOISSERIESylvain1:00:37N/A3326N/A
10310GIROUXThomas1:02:12N/A3241N/A
13937ERTELKelly1:04:07N/A3144N/A
10368SIAUDMarius1:06:51N/A3016N/A
8359MONTERRATAmandine1:07:22N/A2993N/A
15787ROCHEFanny1:09:58N/A2881N/A
5464DENAIXMaylis1:10:32N/A2858N/A
9475GIREFlorie1:11:26N/A2822N/A
8622BUSSODJessica1:11:51N/A2806N/A
12073JOVERKevin1:12:43N/A2772N/A
16372BAUDOTRemi1:13:29N/A2743N/A
11950DESBRESTSabine1:14:24N/A2710N/A
14764DUBESSYLucas1:14:34N/A2704N/A
12357RINGOTAlexis1:14:58N/A2689N/A
16550PAGEQuentin1:15:24N/A2674N/A
12123COPINArthur1:16:24N/A2639N/A
16375BREDOUXSacha1:17:59N/A2585N/A
16081DELANNOYP-Alexandre1:24:45N/A2379N/A
14856MONCLARDGuillaume1:24:53N/A2375N/A
17791PICAZOSilvain1:24:57N/A2373N/A
16374BEAUCHESNEVincent1:26:30N/A2331N/A
11707CHAILLARDFabien1:27:45N/A2297N/A
14767CERTANOChloe1:27:49N/A2296N/A
17861GUSTAFSSONJessica1:29:03N/A2264N/A
16825BAYLOTClement1:30:48N/A2220N/A
15093VILLEDIEURemi1:32:31N/A2179N/A
15675BERJOANAdrien1:32:34N/A2178N/A
7831MASSONAude1:35:44N/A2106N/A
17526CARRIEREHugo1:37:29N/A2068N/A
1155DELIValentine1:42:05N/A1975N/A
17792PICAZOCamille1:51:51N/A1802N/A
18082RADISSONPaul2:24:01N/A1400N/A
17474BREDOUXJocelyne2:47:38N/A1203N/A
18081RADISSONLouise3:38:45N/A922N/A
14830MOTHEJonathanN/AN/A0N/A

  Indice de confiance du circuit (moyenne des différences entre CN et score sur la course des 3 à 10 premiers) : 232




 Circuit "I Bis"

Licence Nom Prénom Temps CN
précédent
Score sur
la course
Différence
9932BASSETIsia0:46:18N/A3872N/A
8108LELOUPAnouk0:49:36N/A3614N/A
17863GUSTAFSSONJannina0:50:59N/A3516N/A
1156DELIMathilde0:51:22N/A3490N/A
11328GRAUERHeloise1:03:47N/A2811N/A
18400FALQUEEmilie1:06:30N/A2696N/A
10077POURREMarion1:15:16N/A2382N/A
10383DELENNESybille1:26:32N/A2072N/A
16744PEANAnne Sophie1:36:03N/A1866N/A
11794FABREGATPauline1:48:04N/A1659N/A
17657DUCATAntoniaN/AN/A0N/A

  Indice de confiance du circuit (moyenne des différences entre CN et score sur la course des 3 à 10 premiers) : 547




 Circuit "K"

Licence Nom Prénom Temps CN
précédent
Score sur
la course
Différence
10384DELENNEAdrien0:29:14N/A3716N/A
11355BASSETMarian0:32:41N/A3324N/A
11904DELENNEWilliam0:33:31N/A3241N/A
8975PERRINArnaud0:37:51N/A2870N/A
7711DENAIXLou0:38:34N/A2817N/A
10309ABELBenoit0:43:44N/A2484N/A
18432HUMMEL-AZAISMargaux0:43:52N/A2476N/A
10369SIAUDUlysse0:45:38N/A2380N/A
7672DEVRIEUXNais0:45:40N/A2379N/A
17862GUSTAFSSONKristoffer0:47:06N/A2306N/A
17864GUSTAFSSONRasmus0:47:13N/A2301N/A
18120CHABANCEThomas0:48:41N/A2231N/A
16502MARTINEZKevin0:48:46N/A2227N/A
10863DEJARDINEmilie0:54:32N/A1992N/A
11952DESBRESTJ-Baptiste0:56:44N/A1915N/A
16357MAISONNEUVEValentine0:57:39N/A1884N/A
9964MONTERRATLaurene1:02:31N/A1738N/A
10396HABERKORNChloé1:08:49N/A1578N/A
17707DI-BRANGOSebastien1:12:41N/A1495N/A
17708XIMENEZVincent1:17:35N/A1400N/A
16496DETINGUYMatthieu1:21:57N/A1326N/A
9402BORNARDJulie1:23:23N/A1303N/A
17543LEPRIEULTRenan1:31:09N/A1192N/A
17932BRISSEBertille1:35:20N/A1139N/A
17813ALIANEIdriss1:40:52N/A1077N/A
12463FARRUGIASylvain1:46:02N/A1024N/A
17550JULLIANPierre FrancoisN/AN/A0N/A
18257MAGNONRobinN/AN/A0N/A
15579DELHOTALNathanN/AN/A0N/A

  Indice de confiance du circuit (moyenne des différences entre CN et score sur la course des 3 à 10 premiers) : 197




 Circuit "L"

Licence Nom Prénom Temps CN
précédent
Score sur
la course
Différence
14950SOGNOMartin0:15:30N/A3329N/A
16137ELIASPauline0:17:36N/A2932N/A
12045CHAILLARDDana0:19:36N/A2632N/A
12358RINGOTPaul0:21:05N/A2447N/A
16547LAVILLEJulien0:25:26N/A2029N/A
14402JOUNEAUAgathe0:25:44N/A2005N/A
13800DELENNECamillia0:26:23N/A1956N/A
16555PICAZOMarie0:26:55N/A1917N/A
16905DELHOTALChloe0:28:41N/A1799N/A
15055LONGAAnael0:29:26N/A1753N/A
17881SANCHEZXan0:31:15N/A1651N/A
8976PERRINMathieu0:31:24N/A1643N/A
10312GIROUXLuc0:33:23N/A1546N/A
14273POURREJeremi0:35:22N/A1459N/A
15720GROSSERobin0:35:27N/A1455N/A
15676BERJOANJulia0:40:29N/A1274N/A
9403BORNARDNicolas0:41:23N/A1247N/A
17865GUSTAFSSONFreia0:52:48N/A977N/A
12587GREBELLouise1:38:13N/A525N/A
15414ASTRADESimeonN/AN/A0N/A

  Indice de confiance du circuit (moyenne des différences entre CN et score sur la course des 3 à 10 premiers) : 266




 Circuit "Jalonné"

Licence Nom Prénom Temps CN
précédent
Score sur
la course
Différence
16147CERTANOLuke0:00:00N/A0N/A
18412LAVILLEAdrien0:00:00N/A0N/A
11395HABERKORNGuilhem0:09:45N/A3137N/A
14523BUIATTIVincent0:09:49N/A3116N/A
15417ROCHEJonathan0:10:22N/A2950N/A
14458JOUNEAUHenri0:12:43N/A2405N/A
17763ELIASGuilhem0:13:18N/A2300N/A
17030DELENNEJoanna0:15:52N/A1928N/A
18080RADISSONJules0:15:59N/A1914N/A
16649WYMERKylian0:17:21N/A1763N/A
12456DESCAMPSKevin0:17:22N/A1761N/A
18249DELENNETommy0:19:55N/A1536N/A
16043MONTEMONTLucas0:20:07N/A1520N/A
17388PAPADOPOULOSNicolas0:20:57N/A1460N/A
17095SOGNOVincent0:21:31N/A1421N/A
15088VOLAY-LECHATNicole0:25:37N/A1194N/A
18119PERRINSimon0:26:46N/A1143N/A
16836MONTEMONTClement0:34:31N/A886N/A
15413ASTRADEGaspard0:51:16N/A597N/A
17475BREDOUXDinkitu-Léonie2:24:22N/A212N/A
15719GROSSEFlorianN/AN/A0N/A

  Indice de confiance du circuit (moyenne des différences entre CN et score sur la course des 3 à 10 premiers) : 359






 Retour